This is the latest recevied weather packets stored in our database for station/object IT9DBI-3. If no packets are shown the sender has not sent any weather packets the latest 10 day(s).
| Time | Temp. | Humidity | Pressure | Rain* | Wind** | Luminosity | Snow |
|---|---|---|---|---|---|---|---|
| 1777883468 | 19.44° C | 48% | 1019.7 hPa | - | - | - | - |
| 1777882266 | 18.89° C | 53% | 1019.8 hPa | - | - | - | - |
| 1777881064 | 18.33° C | 54% | 1019.8 hPa | - | - | - | - |
| 1777879863 | 17.78° C | 43% | 1020 hPa | - | - | - | - |
| 1777878662 | 17.22° C | 44% | 1020 hPa | - | - | - | - |
| 1777877461 | 16.67° C | 47% | 1020 hPa | - | - | - | - |
| 1777876259 | 16.11° C | 55% | 1020.1 hPa | - | - | - | - |
| 1777875058 | 14.44° C | 72% | 1020.1 hPa | - | - | - | - |
| 1777873857 | 13.33° C | 83% | 1020 hPa | - | - | - | - |
| 1777872655 | 12.22° C | 88% | 1019.9 hPa | - | - | - | - |
| 1777871454 | 12.22° C | 93% | 1019.8 hPa | - | - | - | - |
| 1777870253 | 11.11° C | 89% | 1019.7 hPa | - | - | - | - |
| 1777869051 | 11.11° C | 85% | 1019.8 hPa | - | - | - | - |
| 1777867850 | 11.11° C | 89% | 1019.5 hPa | - | - | - | - |
| 1777866648 | 11.11° C | 94% | 1019.5 hPa | - | - | - | - |
| 1777865447 | 11.67° C | 98% | 1019.4 hPa | - | - | - | - |
| 1777864246 | 11.11° C | 96% | 1019.5 hPa | - | - | - | - |
| 1777863045 | 10.56° C | 86% | 1019.7 hPa | - | - | - | - |
| 1777861843 | 10.56° C | 80% | 1019.6 hPa | - | - | - | - |
| 1777860643 | 11.11° C | 77% | 1019.6 hPa | - | - | - | - |
| 1777859441 | 11.11° C | 73% | 1019.4 hPa | - | - | - | - |
| 1777858239 | 10.56° C | 76% | 1019.3 hPa | - | - | - | - |
| 1777857038 | 11.11° C | 78% | 1019.5 hPa | - | - | - | - |
| 1777855837 | 11.11° C | 88% | 1019.6 hPa | - | - | - | - |
| 1777854636 | 11.67° C | 87% | 1019.6 hPa | - | - | - | - |
* Rain since midnight (hover to see other rain measurements)
** Current wind speed in m/s (hover to see current wind gust speed)